Weather History for Moses Lake, WA

Change the Weather History Date:

Sunday, December 1, 2013

  Actual Average Record
Temperature  
Mean Temperature 40 °F 32 °F  
Max Temperature 48 °F 38 °F 53 °F (2012)
Min Temperature 31 °F 25 °F -16 °F (1985)
Degree Days  
Heating Degree Days 25 33  
Month to date heating degree days 25 33  
Since 1 July heating degree days 1460 1494  
Cooling Degree Days 0 0  
Month to date cooling degree days 0 0  
Year to date cooling degree days 948 615  
Moisture  
Dew Point 33 °F    
Average Humidity 86    
Maximum Humidity 100    
Minimum Humidity 71    
Precipitation  
Precipitation T in 0.04 in 0.24 in (2003)
Month to date precipitation T 0.04  
Year to date precipitation 5.86 7.71  
Sea Level Pressure  
Sea Level Pressure 29.90 in    
Wind  
Wind Speed 5 mph (South)    
Max Wind Speed 18 mph    
Max Gust Speed 23 mph    
Visibility 3 miles    
Events Fog , Rain    
T = Trace of Precipitation, MM = Missing Value Source: NWS Daily Summary

Daily Weather History Graph

Daily Weather History Graph

Search for Another Location

Airport:

Trip Planner

Search our weather history database for the weather conditions in past years. The results will help you decide how hot, cold, wet, or windy it might be!

Date:

Astronomy

Dec. 01, 2013 Rise Set
Actual Time 7:23 AM PST 4:09 PM PST
Civil Twilight 6:48 AM PST 4:44 PM PST
Nautical Twilight 6:10 AM PST 5:22 PM PST
Astronomical Twilight 5:33 AM PST 5:59 PM PST
Moon 5:42 AM PST (12/1) 3:27 PM PST (12/1)
Length of Visible Light 9h 55m
Length of Day
8h 45m
Waning Crescent, 2% of the Moon is Illuminated
Dec 1
Waning Crescent
Dec 2
New
Dec 9
First Quarter
Dec 17
Full
Dec 25
Last Quarter

Hourly Weather History & Observations

Time (PST) Temp. Windchill Dew Point Humidity Pressure Visibility Wind Dir Wind Speed Gust Speed Precip Events Conditions
12:52 AM 32.0 °F - 30.9 °F 96% 30.17 in 0.2 mi Calm Calm - N/A Fog Fog
1:20 AM 32.0 °F 28.7 °F 30.2 °F 93% 30.12 in 0.5 mi SSE 3.5 mph - N/A Fog Fog
1:52 AM 32.0 °F 28.7 °F 30.9 °F 96% 30.14 in 0.2 mi South 3.5 mph - N/A Fog Fog
2:00 AM 32.0 °F - 30.2 °F 93% 30.10 in 0.5 mi Calm Calm - N/A Fog Fog
2:22 AM 32.0 °F - 30.2 °F 93% 30.10 in 0.2 mi Calm Calm - N/A Fog Fog
2:52 AM 30.9 °F - 30.9 °F 100% 30.12 in 0.5 mi Calm Calm - N/A Fog Light Freezing Fog
3:03 AM 30.2 °F 26.7 °F 30.2 °F 100% 30.07 in 0.2 mi SSE 3.5 mph - 0.00 in Fog Light Freezing Fog
3:15 AM 30.2 °F - 30.2 °F 100% 30.06 in 0.5 mi Calm Calm - 0.00 in Fog Light Freezing Fog
3:26 AM 30.2 °F - 30.2 °F 100% 30.05 in 0.2 mi Calm Calm - 0.00 in Fog Light Freezing Fog
3:42 AM 30.2 °F 26.7 °F 30.2 °F 100% 30.03 in 0.2 mi SE 3.5 mph - 0.00 in Fog , Rain Light Freezing Rain
3:49 AM 30.2 °F - 30.2 °F 100% 30.03 in 1.0 mi Calm Calm - 0.00 in Rain Light Freezing Rain
3:50 AM 30.9 °F - 30.9 °F 100% 30.07 in 1.2 mi Calm Calm - 0.00 in Rain Light Freezing Rain
4:34 AM 30.2 °F 26.7 °F 30.2 °F 100% 29.98 in 2.0 mi SSE 3.5 mph - 0.00 in   Overcast
4:52 AM 30.9 °F - 30.9 °F 100% 30.01 in 1.8 mi Calm Calm - 0.00 in   Overcast
5:01 AM 30.2 °F - 30.2 °F 100% 29.96 in 2.0 mi Calm Calm - N/A   Overcast
5:52 AM 32.0 °F - 30.9 °F 96% 29.96 in 2.5 mi Calm Calm - N/A   Overcast
6:29 AM 30.2 °F - 30.2 °F 100% 29.90 in 1.8 mi Calm Calm - N/A   Overcast
6:52 AM 30.9 °F - 30.9 °F 100% 29.93 in 1.5 mi Calm Calm - N/A   Overcast
7:39 AM 32.0 °F - 30.2 °F 93% 29.87 in 0.8 mi Calm Calm - N/A   Mist
7:52 AM 32.0 °F - 30.9 °F 96% 29.90 in 0.2 mi Calm Calm - N/A Fog Fog
8:41 AM 30.2 °F 21.9 °F 30.2 °F 100% 29.82 in 0.8 mi SSW 9.2 mph - N/A   Overcast
8:52 AM 30.9 °F 22.2 °F 30.0 °F 96% 29.85 in 0.2 mi SSW 10.4 mph - N/A Fog Light Freezing Fog
9:15 AM 32.0 °F 24.8 °F 30.2 °F 93% 29.82 in 0.2 mi SSW 8.1 mph - N/A Fog Fog
9:39 AM 30.2 °F 23.4 °F 30.2 °F 100% 29.84 in 0.2 mi NNW 6.9 mph - N/A Fog Light Freezing Fog
9:52 AM 30.9 °F 24.3 °F 30.0 °F 96% 29.88 in 0.2 mi North 6.9 mph - N/A Fog Light Freezing Fog
10:52 AM 32.0 °F 25.6 °F 32.0 °F 100% 29.88 in 0.2 mi ENE 6.9 mph - N/A Fog Fog
11:52 AM 35.1 °F 31.0 °F 35.1 °F 100% 29.86 in 0.2 mi East 4.6 mph - N/A Fog Fog
11:56 AM 35.6 °F 32.8 °F 35.6 °F 100% 29.82 in 1.0 mi ENE 3.5 mph - N/A   Overcast
12:18 PM 35.6 °F - 35.6 °F 100% 29.83 in 2.5 mi Calm Calm - N/A   Overcast
12:50 PM 37.4 °F 32.1 °F 35.6 °F 93% 29.83 in 3.0 mi NNE 6.9 mph - N/A   Mostly Cloudy
12:52 PM 37.9 °F 33.5 °F 36.0 °F 93% 29.86 in 4.0 mi NNE 5.8 mph - N/A   Mostly Cloudy
1:04 PM 37.4 °F 32.1 °F 35.6 °F 93% 29.82 in 5.0 mi NNE 6.9 mph - N/A   Scattered Clouds
1:52 PM 39.0 °F 36.8 °F 36.0 °F 89% 29.84 in 5.0 mi SSE 3.5 mph - N/A   Clear
2:52 PM 39.0 °F 36.8 °F 37.0 °F 93% 29.83 in 5.0 mi NW 3.5 mph - N/A   Clear
3:52 PM 37.0 °F - 35.1 °F 93% 29.82 in 4.0 mi Calm Calm - N/A   Clear
4:52 PM 35.1 °F 29.3 °F 34.0 °F 96% 29.81 in 3.0 mi NNW 6.9 mph - N/A   Scattered Clouds
5:52 PM 34.0 °F 31.0 °F 34.0 °F 100% 29.79 in 3.0 mi SE 3.5 mph - N/A   Overcast
6:52 PM 39.0 °F 33.4 °F 36.0 °F 89% 29.74 in 10.0 mi SSW 8.1 mph - N/A   Mostly Cloudy
7:52 PM 46.9 °F - 39.9 °F 77% 29.70 in 10.0 mi South 10.4 mph - N/A   Clear
8:52 PM 45.0 °F 41.8 °F 39.9 °F 82% 29.69 in 10.0 mi South 5.8 mph - N/A   Clear
9:52 PM 46.9 °F - 37.9 °F 71% 29.67 in 10.0 mi WSW 13.8 mph - N/A   Clear
10:52 PM 46.0 °F 40.6 °F 37.0 °F 71% 29.66 in 10.0 mi WSW 11.5 mph - N/A   Clear
11:52 PM 46.0 °F 39.3 °F 37.9 °F 73% 29.64 in 10.0 mi SW 16.1 mph - N/A   Clear